Hourly Weather Sevan

Today, 9 July, Thursday

Time Temperature Precipitation Wind Pressure Humidity
00:00 +21°C° 0.1 mm 2 mps 641 mmHg 59%
01:00 +20°C° 0 mm 2 mps 641 mmHg 60%
02:00 +19°C° 0 mm 2 mps 641 mmHg 61%
03:00 +19°C° 0 mm 2 mps 640 mmHg 64%
04:00 +19°C° 0 mm 2 mps 641 mmHg 65%
05:00 +21°C° 0 mm 1 mps 641 mmHg 65%
06:00 +21°C° 0 mm 1 mps 642 mmHg 65%
07:00 +23°C° 0.2 mm 1 mps 642 mmHg 61%
08:00 +24°C° 0.2 mm 1 mps 642 mmHg 57%
09:00 +26°C° 0 mm 1 mps 642 mmHg 52%
10:00 +27°C° 0.4 mm 1 mps 642 mmHg 48%
11:00 +28°C° 0.4 mm 1 mps 643 mmHg 44%
12:00 +29°C° 0.4 mm 2 mps 643 mmHg 41%
13:00 +29°C° 0.6 mm 2 mps 643 mmHg 41%
14:00 +29°C° 0.6 mm 2 mps 643 mmHg 41%
15:00 +30°C° 0.6 mm 3 mps 642 mmHg 41%
16:00 +28°C° 0.5 mm 3 mps 642 mmHg 48%
17:00 +27°C° 0.5 mm 3 mps 642 mmHg 54%
18:00 +25°C° 0.5 mm 3 mps 642 mmHg 60%
19:00 +24°C° 0.2 mm 3 mps 642 mmHg 64%
20:00 +21°C° 0.2 mm 2 mps 642 mmHg 67%
21:00 +20°C° 0.2 mm 2 mps 642 mmHg 70%
22:00 +20°C° 0.2 mm 2 mps 642 mmHg 71%
23:00 +19°C° 0.2 mm 2 mps 642 mmHg 73%

Tomorrow, 10 July, Friday

Time Temperature Precipitation Wind Pressure Humidity
00:00 +19°C° 0.2 mm 2 mps 642 mmHg 74%
01:00 +19°C° 0.2 mm 1 mps 642 mmHg 74%
02:00 +19°C° 0.2 mm 1 mps 641 mmHg 75%
03:00 +19°C° 0.2 mm 1 mps 641 mmHg 75%
04:00 +19°C° 0.1 mm 1 mps 641 mmHg 74%
05:00 +20°C° 0.1 mm 1 mps 642 mmHg 74%
06:00 +20°C° 0.1 mm 1 mps 642 mmHg 74%
07:00 +21°C° 0.9 mm 1 mps 642 mmHg 72%
08:00 +22°C° 0.9 mm 1 mps 643 mmHg 71%
09:00 +21°C° 0.9 mm 2 mps 643 mmHg 70%
10:00 +24°C° 0.4 mm 1 mps 643 mmHg 63%
11:00 +25°C° 0.4 mm 1 mps 643 mmHg 57%
12:00 +26°C° 0.4 mm 1 mps 643 mmHg 50%
13:00 +27°C° 0.9 mm 1 mps 643 mmHg 49%
14:00 +28°C° 0.9 mm 2 mps 643 mmHg 49%
15:00 +28°C° 0.9 mm 2 mps 643 mmHg 48%
16:00 +28°C° 0.6 mm 2 mps 643 mmHg 50%
17:00 +27°C° 0.6 mm 2 mps 643 mmHg 53%
18:00 +26°C° 0.6 mm 2 mps 643 mmHg 56%
19:00 +24°C° 0.3 mm 2 mps 643 mmHg 61%
20:00 +21°C° 0.3 mm 3 mps 642 mmHg 66%
21:00 +19°C° 0.3 mm 3 mps 642 mmHg 72%
22:00 +19°C° 0.3 mm 2 mps 642 mmHg 73%
23:00 +19°C° 0.3 mm 2 mps 642 mmHg 73%

Day after tomorrow, 11 July, Saturday

Time Temperature Precipitation Wind Pressure Humidity
00:00 +19°C° 0.3 mm 1 mps 642 mmHg 74%
01:00 +19°C° 0.3 mm 1 mps 642 mmHg 76%
02:00 +19°C° 0.3 mm 1 mps 642 mmHg 77%
03:00 +17°C° 0.3 mm 2 mps 642 mmHg 78%
04:00 +18°C° 0.3 mm 2 mps 642 mmHg 79%
05:00 +18°C° 0.3 mm 2 mps 642 mmHg 79%
06:00 +18°C° 0.3 mm 2 mps 642 mmHg 79%
07:00 +20°C° 0.5 mm 2 mps 642 mmHg 74%
08:00 +21°C° 0.5 mm 2 mps 643 mmHg 69%
09:00 +24°C° 0.5 mm 1 mps 643 mmHg 63%
10:00 +25°C° 0.8 mm 2 mps 643 mmHg 60%
11:00 +26°C° 0.8 mm 2 mps 643 mmHg 57%
12:00 +27°C° 0.8 mm 2 mps 643 mmHg 54%
13:00 +27°C° 0.5 mm 2 mps 643 mmHg 52%
14:00 +28°C° 0.5 mm 2 mps 643 mmHg 51%
15:00 +28°C° 0.5 mm 2 mps 643 mmHg 50%
16:00 +27°C° 0.7 mm 3 mps 643 mmHg 53%
17:00 +26°C° 0.7 mm 3 mps 642 mmHg 56%
18:00 +26°C° 0.7 mm 3 mps 642 mmHg 60%
19:00 +24°C° 0.9 mm 3 mps 642 mmHg 65%
20:00 +21°C° 0.9 mm 3 mps 642 mmHg 71%
21:00 +19°C° 0.9 mm 2 mps 642 mmHg 77%
22:00 +19°C° 1.1 mm 2 mps 642 mmHg 78%
23:00 +19°C° 1.1 mm 2 mps 641 mmHg 80%

12 July, Sunday

Time Temperature Precipitation Wind Pressure Humidity
00:00 +19°C° 1.1 mm 2 mps 641 mmHg 81%
01:00 +18°C° 0.3 mm 2 mps 641 mmHg 81%
02:00 +18°C° 0.3 mm 2 mps 641 mmHg 82%
03:00 +18°C° 0.3 mm 2 mps 640 mmHg 82%
04:00 +18°C° 0 mm 2 mps 640 mmHg 81%
05:00 +19°C° 0 mm 1 mps 640 mmHg 80%
06:00 +20°C° 0 mm 1 mps 640 mmHg 79%
07:00 +21°C° 0.3 mm 1 mps 641 mmHg 73%
08:00 +23°C° 0.3 mm 1 mps 641 mmHg 67%
09:00 +24°C° 0.3 mm 1 mps 641 mmHg 61%
10:00 +25°C° 0.9 mm 2 mps 641 mmHg 58%
11:00 +26°C° 0.9 mm 2 mps 641 mmHg 54%
12:00 +27°C° 0.9 mm 2 mps 642 mmHg 51%
13:00 +28°C° 0.7 mm 2 mps 641 mmHg 49%
14:00 +28°C° 0.7 mm 1 mps 641 mmHg 47%
15:00 +29°C° 0.7 mm 1 mps 641 mmHg 45%
16:00 +28°C° 0.3 mm 2 mps 641 mmHg 49%
17:00 +27°C° 0.3 mm 2 mps 641 mmHg 52%
18:00 +27°C° 0.3 mm 3 mps 640 mmHg 56%
19:00 +25°C° 0.5 mm 3 mps 640 mmHg 61%
20:00 +22°C° 0.5 mm 4 mps 640 mmHg 65%
21:00 +20°C° 0.5 mm 4 mps 640 mmHg 70%
22:00 +20°C° 0.4 mm 3 mps 640 mmHg 71%
23:00 +19°C° 0.4 mm 3 mps 640 mmHg 73%

13 July, Monday

Time Temperature Precipitation Wind Pressure Humidity
00:00 +19°C° 0.4 mm 2 mps 639 mmHg 74%
01:00 +19°C° 0.3 mm 2 mps 639 mmHg 74%
02:00 +19°C° 0.3 mm 2 mps 639 mmHg 74%
03:00 +18°C° 0.3 mm 2 mps 638 mmHg 74%
04:00 +19°C° 0 mm 2 mps 639 mmHg 73%
05:00 +20°C° 0 mm 1 mps 639 mmHg 72%
06:00 +21°C° 0 mm 1 mps 639 mmHg 71%
07:00 +22°C° 0.2 mm 1 mps 639 mmHg 66%
08:00 +24°C° 0.2 mm 1 mps 639 mmHg 61%
09:00 +26°C° 0.2 mm 1 mps 640 mmHg 56%
10:00 +27°C° 0.3 mm 2 mps 640 mmHg 52%
11:00 +28°C° 0.3 mm 2 mps 640 mmHg 47%
12:00 +29°C° 0.3 mm 2 mps 640 mmHg 43%
13:00 +30°C° 0.2 mm 2 mps 640 mmHg 41%
14:00 +30°C° 0.2 mm 2 mps 640 mmHg 40%
15:00 +30°C° 0.2 mm 2 mps 640 mmHg 38%
16:00 +27°C° 1 mm 3 mps 639 mmHg 50%
17:00 +25°C° 1 mm 4 mps 638 mmHg 62%
18:00 +21°C° 1 mm 5 mps 637 mmHg 73%
19:00 +20°C° 0.3 mm 4 mps 638 mmHg 73%
20:00 +20°C° 0.3 mm 4 mps 638 mmHg 73%
21:00 +20°C° 0.3 mm 3 mps 639 mmHg 73%
22:00 +19°C° 0.1 mm 3 mps 639 mmHg 73%
23:00 +19°C° 0.1 mm 2 mps 639 mmHg 73%

14 July, Tuesday

Time Temperature Precipitation Wind Pressure Humidity
00:00 +20°C° 0.1 mm 1 mps 639 mmHg 73%
01:00 +19°C° 0 mm 1 mps 639 mmHg 72%
02:00 +19°C° 0 mm 1 mps 639 mmHg 71%
03:00 +18°C° 0 mm 1 mps 639 mmHg 71%
04:00 +19°C° 0 mm 1 mps 639 mmHg 70%
05:00 +20°C° 0 mm 1 mps 639 mmHg 70%
06:00 +20°C° 0 mm 1 mps 640 mmHg 69%
07:00 +22°C° 0.1 mm 1 mps 640 mmHg 65%
08:00 +24°C° 0.1 mm 1 mps 641 mmHg 60%
09:00 +25°C° 0.1 mm 1 mps 641 mmHg 55%
10:00 +26°C° 0.4 mm 1 mps 642 mmHg 51%
11:00 +28°C° 0.4 mm 2 mps 642 mmHg 47%
12:00 +29°C° 0.4 mm 2 mps 642 mmHg 43%
13:00 +29°C° 0.2 mm 2 mps 642 mmHg 42%
14:00 +30°C° 0.2 mm 2 mps 642 mmHg 40%
15:00 +30°C° 0.2 mm 1 mps 642 mmHg 39%
16:00 +30°C° 0.2 mm 2 mps 642 mmHg 44%
17:00 +29°C° 0.2 mm 3 mps 642 mmHg 49%
18:00 +28°C° 0.2 mm 3 mps 642 mmHg 54%
19:00 +26°C° 0.1 mm 4 mps 642 mmHg 57%
20:00 +23°C° 0.1 mm 4 mps 642 mmHg 59%
21:00 +21°C° 0.1 mm 4 mps 642 mmHg 62%
22:00 +21°C° 0.2 mm 4 mps 642 mmHg 64%
23:00 +21°C° 0.2 mm 3 mps 642 mmHg 65%
Show more